Grove, OK

7:35 PM CST on February 06, 2016 (GMT -0600)
Grove Municipal

Weather History for KGMJ - March, 2013

Change the Weather History Date:

Tuesday, March 19, 2013

  Actual Average (KJLN) Record (KJLN)
Temperature  
Mean Temperature 46 °F 50 °F  
Max Temperature 59 °F 61 °F 84 °F (1995)
Min Temperature 32 °F 39 °F 13 °F (1965)
Degree Days  
Heating Degree Days 20 15  
Month to date heating degree days 344  
Since 1 July heating degree days 3598  
Cooling Degree Days 0 0  
Month to date cooling degree days 0  
Year to date cooling degree days 1  
Moisture  
Dew Point 29 °F    
Average Humidity 63    
Maximum Humidity 100    
Minimum Humidity 23    
Precipitation  
Precipitation 0.00 in 0.11 in 3.06 in (2012)
Month to date precipitation 2.00  
Year to date precipitation 6.35  
Sea Level Pressure  
Sea Level Pressure 30.17 in    
Wind  
Wind Speed 2 mph (ENE)    
Max Wind Speed 14 mph    
Max Gust Speed 22 mph    
Visibility 10 miles    
Events      
T = Trace of Precipitation, MM = Missing Value Source: NWS Daily Summary

Daily Weather History Graph

Daily Weather History Graph

Search for Another Location

Airport or City:

Trip Planner

Search our weather history database for the weather conditions in past years. The results will help you decide how hot, cold, wet, or windy it might be!

Date:

Astronomy

Mar. 19, 2013 Rise Set
Actual Time 7:23 AM CDT 7:30 PM CDT
Civil Twilight 6:57 AM CDT 7:55 PM CDT
Nautical Twilight 6:27 AM CDT 8:26 PM CDT
Astronomical Twilight 5:57 AM CDT 8:56 PM CDT
Moon 12:23 PM CDT (3/19) 2:08 AM CDT (3/19)
Length of Visible Light 12h 58m
Length of Day
12h 06m
Waxing Crescent, 50% of the Moon is Illuminated
Mar 19
Waxing Crescent
Mar 19
First Quarter
Mar 27
Full
Apr 2
Last Quarter
Apr 10
New

Hourly Weather History & Observations

Time (CDT) Temp. Windchill Dew Point Humidity Pressure Visibility Wind Dir Wind Speed Gust Speed Precip Events Conditions
12:15 AM 37.4 °F - 35.6 °F 93% 30.08 in 10.0 mi Calm Calm - N/A   Clear
12:35 AM 35.6 °F - 35.6 °F 100% 30.08 in 10.0 mi Calm Calm - N/A   Clear
12:55 AM 35.6 °F - 35.6 °F 100% 30.08 in 10.0 mi Calm Calm - N/A   Clear
1:15 AM 33.8 °F - 33.8 °F 100% 30.07 in 10.0 mi Calm Calm - N/A   Clear
1:35 AM 33.8 °F - 33.8 °F 100% 30.06 in 10.0 mi Calm Calm - N/A   Clear
1:55 AM 33.8 °F - 33.8 °F 100% 30.04 in 10.0 mi Calm Calm - N/A   Clear
2:15 AM 33.8 °F - 33.8 °F 100% 30.06 in 10.0 mi Calm Calm - N/A   Clear
2:35 AM 32.0 °F - 32.0 °F 100% 30.08 in 10.0 mi Calm Calm - N/A   Clear
2:55 AM 33.8 °F - 33.8 °F 100% 30.09 in 10.0 mi Calm Calm - N/A   Clear
3:15 AM 33.8 °F - 33.8 °F 100% 30.08 in 10.0 mi Calm Calm - N/A   Clear
3:35 AM 32.0 °F - 32.0 °F 100% 30.08 in 10.0 mi Calm Calm - N/A   Clear
3:55 AM 32.0 °F - 32.0 °F 100% 30.08 in 10.0 mi Calm Calm - N/A   Clear
4:15 AM 32.0 °F - 32.0 °F 100% 30.08 in 10.0 mi Calm Calm - N/A   Clear
4:35 AM 33.8 °F - 33.8 °F 100% 30.09 in 10.0 mi Calm Calm - N/A   Clear
4:55 AM 32.0 °F 28.7 °F 32.0 °F 100% 30.10 in 10.0 mi NE 3.5 mph - N/A   Clear
5:15 AM 32.0 °F 28.7 °F 32.0 °F 100% 30.10 in 10.0 mi NE 3.5 mph - N/A   Clear
5:35 AM 35.6 °F 32.8 °F 30.2 °F 81% 30.11 in 10.0 mi NE 3.5 mph - N/A   Clear
5:55 AM 35.6 °F - 30.2 °F 81% 30.12 in 10.0 mi Calm Calm - N/A   Clear
6:15 AM 33.8 °F - 30.2 °F 87% 30.13 in 10.0 mi Calm Calm - N/A   Clear
6:35 AM 32.0 °F - 30.2 °F 93% 30.14 in 10.0 mi Calm Calm - N/A   Clear
6:55 AM 32.0 °F - 30.2 °F 93% 30.16 in 10.0 mi Calm Calm - N/A   Unknown
7:15 AM 33.8 °F - 30.2 °F 87% 30.16 in 10.0 mi Calm Calm - N/A   Clear
7:35 AM 32.0 °F - 28.4 °F 87% 30.17 in 10.0 mi Calm Calm - N/A   Clear
7:55 AM 32.0 °F - 30.2 °F 93% 30.17 in 10.0 mi Calm Calm - N/A   Clear
8:15 AM 33.8 °F - 32.0 °F 93% 30.19 in 10.0 mi Calm Calm - N/A   Clear
8:35 AM 35.6 °F - 32.0 °F 87% 30.20 in 10.0 mi Calm Calm - N/A   Clear
8:55 AM 37.4 °F - 30.2 °F 75% 30.20 in 10.0 mi Calm Calm - N/A   Clear
9:15 AM 41.0 °F - 32.0 °F 70% 30.20 in 10.0 mi Calm Calm - N/A   Clear
9:35 AM 42.8 °F 40.1 °F 30.2 °F 61% 30.20 in 10.0 mi East 4.6 mph - N/A   Clear
9:55 AM 42.8 °F 38.6 °F 32.0 °F 66% 30.20 in 10.0 mi ENE 6.9 mph - N/A   Clear
10:15 AM 44.6 °F 42.2 °F 28.4 °F 53% 30.21 in 10.0 mi ENE 4.6 mph - N/A   Clear
10:35 AM 48.2 °F - 28.4 °F 46% 30.22 in 10.0 mi East 5.8 mph - N/A   Clear
10:55 AM 50.0 °F - 23.0 °F 35% 30.21 in 10.0 mi East 5.8 mph - N/A   Clear
11:15 AM 50.0 °F - 21.2 °F 32% 30.21 in 10.0 mi East 5.8 mph - N/A   Clear
11:35 AM 51.8 °F - 19.4 °F 28% 30.22 in 10.0 mi ESE 8.1 mph - N/A   Scattered Clouds
11:55 AM 53.6 °F - 21.2 °F 28% 30.21 in 10.0 mi East 5.8 mph - N/A   Scattered Clouds
12:15 PM 53.6 °F - 21.2 °F 28% 30.21 in 10.0 mi East 4.6 mph - N/A   Clear
12:35 PM 53.6 °F - 19.4 °F 26% 30.20 in 10.0 mi ESE 6.9 mph - N/A   Clear
1:15 PM 55.4 °F - 19.4 °F 25% 30.19 in 10.0 mi ESE 3.5 mph - N/A   Clear
1:35 PM 55.4 °F - 23.0 °F 29% 30.17 in 10.0 mi ENE 6.9 mph - N/A   Clear
1:55 PM 55.4 °F - 21.2 °F 26% 30.17 in 10.0 mi ENE 4.6 mph - N/A   Clear
2:15 PM 57.2 °F - 23.0 °F 27% 30.16 in 10.0 mi ESE 8.1 mph - N/A   Clear
2:35 PM 59.0 °F - 21.2 °F 23% 30.15 in 10.0 mi ESE 5.8 mph - N/A   Clear
2:55 PM 59.0 °F - 21.2 °F 23% 30.15 in 10.0 mi SE 8.1 mph - N/A   Clear
3:15 PM 57.2 °F - 21.2 °F 25% 30.14 in 10.0 mi ESE 8.1 mph - N/A   Clear
3:35 PM 59.0 °F - 21.2 °F 23% 30.14 in 10.0 mi NE 3.5 mph - N/A   Clear
3:55 PM 59.0 °F - 23.0 °F 25% 30.15 in 10.0 mi Calm Calm - N/A   Clear
4:15 PM 57.2 °F - 23.0 °F 27% 30.15 in 10.0 mi Calm Calm - N/A   Scattered Clouds
4:35 PM 59.0 °F - 23.0 °F 25% 30.15 in 10.0 mi ENE 4.6 mph - N/A   Mostly Cloudy
4:55 PM 57.2 °F - 23.0 °F 27% 30.15 in 10.0 mi Calm Calm - N/A   Scattered Clouds
5:15 PM 57.2 °F - 23.0 °F 27% 30.15 in 10.0 mi NNE 5.8 mph - N/A   Scattered Clouds
5:35 PM 55.4 °F - 24.8 °F 31% 30.16 in 10.0 mi NNE 9.2 mph - N/A   Scattered Clouds
5:55 PM 53.6 °F - 26.6 °F 35% 30.16 in 10.0 mi NE 10.4 mph 18.4 mph N/A   Scattered Clouds
6:15 PM 51.8 °F - 26.6 °F 38% 30.18 in 10.0 mi NNE 12.7 mph 21.9 mph N/A   Clear
6:35 PM 50.0 °F - 26.6 °F 40% 30.19 in 10.0 mi NNE 10.4 mph 21.9 mph N/A   Clear
6:55 PM 50.0 °F - 28.4 °F 43% 30.19 in 10.0 mi NE 10.4 mph 18.4 mph N/A   Clear
7:15 PM 48.2 °F - 26.6 °F 43% 30.20 in 10.0 mi NNE 13.8 mph 21.9 mph N/A   Clear
7:35 PM 46.4 °F 41.1 °F 26.6 °F 46% 30.21 in 10.0 mi NE 11.5 mph 17.3 mph N/A   Scattered Clouds
7:55 PM 46.4 °F 41.1 °F 28.4 °F 50% 30.21 in 10.0 mi NE 11.5 mph 20.7 mph N/A   Scattered Clouds
8:15 PM 46.4 °F 41.1 °F 28.4 °F 50% 30.23 in 10.0 mi NE 11.5 mph 16.1 mph N/A   Scattered Clouds
8:35 PM 44.6 °F 40.2 °F 30.2 °F 57% 30.23 in 10.0 mi NE 8.1 mph 21.9 mph N/A   Scattered Clouds
8:55 PM 44.6 °F 40.7 °F 32.0 °F 61% 30.25 in 10.0 mi NNE 6.9 mph 18.4 mph N/A   Scattered Clouds
9:15 PM 44.6 °F 40.2 °F 32.0 °F 61% 30.23 in 10.0 mi ENE 8.1 mph - N/A   Mostly Cloudy
9:35 PM 44.6 °F 43.1 °F 32.0 °F 61% 30.25 in 10.0 mi NNE 3.5 mph - N/A   Mostly Cloudy
9:55 PM 42.8 °F 39.3 °F 32.0 °F 66% 30.25 in 10.0 mi ENE 5.8 mph - N/A   Scattered Clouds
10:15 PM 42.8 °F 41.1 °F 32.0 °F 66% 30.27 in 10.0 mi ENE 3.5 mph - N/A   Scattered Clouds
10:35 PM 42.8 °F - 32.0 °F 66% 30.27 in 10.0 mi Calm Calm - N/A   Scattered Clouds
10:55 PM 41.0 °F - 32.0 °F 70% 30.28 in 10.0 mi Calm Calm - N/A   Clear
11:15 PM 41.0 °F - 32.0 °F 70% 30.28 in 10.0 mi Calm Calm - N/A   Clear
11:35 PM 41.0 °F - 32.0 °F 70% 30.28 in 10.0 mi Calm Calm - N/A   Mostly Cloudy
11:55 PM 39.2 °F - 32.0 °F 75% 30.28 in 10.0 mi Calm Calm - N/A   Scattered Clouds